Fort Meade, MD

10:46 PM EDT on August 16, 2017 (GMT -0400)
Tipton

Weather History for KFME - December, 2012

Change the Weather History Date:

Wednesday, December 26, 2012

  Actual Average (KBWI) Record (KBWI)
Temperature  
Mean Temperature 39 °F -  
Max Temperature 46 °F 40 °F 73 °F (1964)
Min Temperature 32 °F 24 °F 2 °F (1983)
Degree Days  
Heating Degree Days 26    
Moisture  
Dew Point 33 °F    
Average Humidity 89    
Maximum Humidity 100    
Minimum Humidity 75    
Precipitation  
Precipitation 0.00 in - - ()
Sea Level Pressure  
Sea Level Pressure 29.87 in    
Wind  
Wind Speed 7 mph (NE)    
Max Wind Speed 16 mph    
Max Gust Speed 25 mph    
Visibility 7 miles    
Events      
Averages and records for this station are not official NWS values.
T = Trace of Precipitation, MM = Missing Value Source: NWS Daily Summary

Daily Weather History Graph

Daily Weather History Graph

Search for Another Location

Airport or City:

Trip Planner

Search our weather history database for the weather conditions in past years. The results will help you decide how hot, cold, wet, or windy it might be!

Date:

Astronomy

Dec. 26, 2012 Rise Set
Actual Time 7:24 AM EST 4:50 PM EST
Civil Twilight 6:54 AM EST 5:21 PM EST
Nautical Twilight 6:21 AM EST 5:54 PM EST
Astronomical Twilight 5:48 AM EST 6:27 PM EST
Moon 3:42 PM EST (12/26) 5:46 AM EST (12/26)
Length of Visible Light 10h 26m
Length of Day
9h 26m
Waxing Gibbous, 97% of the Moon is Illuminated
Dec 26
Waxing Gibbous
Dec 28
Full
Jan 4
Last Quarter
Jan 11
New
Jan 18
First Quarter

Hourly Weather History & Observations

Time (EST) Temp. Windchill Dew Point Humidity Pressure Visibility Wind Dir Wind Speed Gust Speed Precip Events Conditions
12:18 AM 35.6 °F 29.9 °F 28.4 °F 75% 30.28 in 10.0 mi ENE 6.9 mph - N/A   Overcast
12:39 AM 35.6 °F 29.2 °F 28.4 °F 75% 30.28 in 10.0 mi NE 8.1 mph - N/A   Overcast
1:00 AM 33.8 °F 29.6 °F 28.4 °F 81% 30.28 in 10.0 mi NNE 4.6 mph - N/A   Overcast
1:42 AM 33.8 °F 30.8 °F 28.4 °F 81% 30.27 in 10.0 mi ENE 3.5 mph - N/A   Overcast
2:03 AM 33.8 °F 28.6 °F 26.6 °F 75% 30.26 in 10.0 mi ENE 5.8 mph - N/A   Scattered Clouds
2:24 AM 32.0 °F 27.5 °F 28.4 °F 87% 30.25 in 10.0 mi NE 4.6 mph - N/A   Clear
2:45 AM 32.0 °F 28.7 °F 26.6 °F 80% 30.27 in 10.0 mi ENE 3.5 mph - N/A   Scattered Clouds
3:09 AM 32.0 °F 28.7 °F 26.6 °F 80% 30.26 in 10.0 mi NE 3.5 mph - N/A   Scattered Clouds
3:30 AM 32.0 °F 27.5 °F 26.6 °F 80% 30.24 in 10.0 mi NNE 4.6 mph - N/A   Clear
3:51 AM 32.0 °F 27.5 °F 26.6 °F 80% 30.24 in 10.0 mi NNE 4.6 mph - N/A   Clear
4:12 AM 32.0 °F 27.5 °F 26.6 °F 80% 30.22 in 10.0 mi NE 4.6 mph - N/A   Clear
4:33 AM 32.0 °F 26.4 °F 26.6 °F 80% 30.20 in 10.0 mi NE 5.8 mph - N/A   Clear
4:54 AM 32.0 °F 24.2 °F 26.6 °F 80% 30.19 in 10.0 mi NE 9.2 mph - N/A   Clear
5:15 AM 32.0 °F 26.4 °F 26.6 °F 80% 30.20 in 10.0 mi NE 5.8 mph - N/A   Clear
5:36 AM 32.0 °F 26.4 °F 26.6 °F 80% 30.21 in 10.0 mi ENE 5.8 mph - N/A   Scattered Clouds
5:57 AM 32.0 °F 27.5 °F 26.6 °F 80% 30.21 in 10.0 mi ENE 4.6 mph - N/A   Overcast
6:18 AM 32.0 °F 27.5 °F 26.6 °F 80% 30.21 in 10.0 mi NE 4.6 mph - N/A   Overcast
6:42 AM 32.0 °F 28.7 °F 26.6 °F 80% 30.21 in 10.0 mi NE 3.5 mph - N/A   Overcast
7:00 AM 32.0 °F 25.6 °F 26.6 °F 80% 30.20 in 10.0 mi ENE 6.9 mph - N/A   Overcast
7:24 AM 32.0 °F 26.4 °F 26.6 °F 80% 30.19 in 10.0 mi ENE 5.8 mph - N/A   Overcast
7:45 AM 32.0 °F 27.5 °F 28.4 °F 87% 30.18 in 5.0 mi ENE 4.6 mph - N/A   Overcast
8:06 AM 32.0 °F 24.2 °F 28.4 °F 87% 30.13 in 5.0 mi NE 9.2 mph - N/A   Overcast
8:27 AM 32.0 °F 23.6 °F 30.2 °F 93% 30.08 in 4.0 mi ENE 10.4 mph 19.6 mph N/A   Overcast
8:48 AM 32.0 °F 24.8 °F 30.2 °F 93% 30.12 in 4.0 mi East 8.1 mph 17.3 mph N/A   Overcast
9:09 AM 32.0 °F 26.4 °F 30.2 °F 93% 30.13 in 2.5 mi ENE 5.8 mph - N/A   Overcast
10:57 AM 32.0 °F 24.2 °F 32.0 °F 100% 30.03 in 4.0 mi ENE 9.2 mph 17.3 mph N/A   Mostly Cloudy
11:18 AM 32.0 °F 23.0 °F 32.0 °F 100% 30.01 in 3.0 mi ENE 11.5 mph 16.1 mph N/A   Overcast
11:39 AM 32.0 °F 23.6 °F 32.0 °F 100% 29.99 in 3.0 mi ENE 10.4 mph 18.4 mph N/A   Overcast
12:00 PM 32.0 °F 23.6 °F 32.0 °F 100% 29.93 in 3.0 mi ENE 10.4 mph 18.4 mph N/A   Overcast
12:21 PM 32.0 °F 23.0 °F 32.0 °F 100% 29.90 in 2.5 mi ENE 11.5 mph 21.9 mph N/A   Overcast
12:42 PM 32.0 °F 22.5 °F 32.0 °F 100% 29.90 in 2.5 mi ENE 12.7 mph 20.7 mph N/A   Overcast
1:03 PM 32.0 °F 22.5 °F 32.0 °F 100% 29.87 in 2.5 mi ENE 12.7 mph 21.9 mph N/A   Unknown
1:24 PM 32.0 °F 22.1 °F 32.0 °F 100% 29.84 in 1.8 mi East 13.8 mph 21.9 mph N/A   Unknown
1:45 PM 33.8 °F 24.8 °F 32.0 °F 93% 29.83 in 2.5 mi ENE 12.7 mph 18.4 mph N/A   Unknown
2:06 PM 33.8 °F 25.3 °F 32.0 °F 93% 29.78 in 1.8 mi ENE 11.5 mph 23.0 mph N/A   Unknown
2:27 PM 33.8 °F 25.3 °F 32.0 °F 93% 29.75 in 3.0 mi NE 11.5 mph 20.7 mph N/A   Mostly Cloudy
2:48 PM 33.8 °F 23.5 °F 32.0 °F 93% 29.71 in 4.0 mi ENE 16.1 mph 23.0 mph N/A   Overcast
3:12 PM 33.8 °F 25.8 °F 33.8 °F 100% 29.69 in 2.0 mi ENE 10.4 mph 19.6 mph N/A   Overcast
3:33 PM 35.6 °F 27.1 °F 33.8 °F 93% 29.67 in 2.0 mi ENE 12.7 mph 25.3 mph N/A   Overcast
3:54 PM 35.6 °F 28.6 °F 33.8 °F 93% 29.64 in 2.0 mi ENE 9.2 mph 17.3 mph N/A   Overcast
4:15 PM 35.6 °F 28.6 °F 33.8 °F 93% 29.63 in 2.5 mi NE 9.2 mph - N/A   Overcast
4:36 PM 35.6 °F 28.6 °F 35.6 °F 100% 29.59 in 4.0 mi NE 9.2 mph 24.2 mph N/A   Overcast
5:18 PM 37.4 °F 31.4 °F 35.6 °F 93% 29.51 in 10.0 mi NE 8.1 mph 18.4 mph N/A   Overcast
5:39 PM 37.4 °F 31.4 °F 35.6 °F 93% 29.50 in 10.0 mi NE 8.1 mph - N/A   Overcast
6:00 PM 41.0 °F 39.0 °F 37.4 °F 87% 29.49 in 10.0 mi NE 3.5 mph - N/A   Overcast
6:21 PM 39.2 °F 33.0 °F 37.4 °F 93% 29.49 in 3.0 mi SW 9.2 mph - N/A   Overcast
6:42 PM 44.6 °F 39.2 °F 42.8 °F 93% 29.46 in 7.0 mi East 10.4 mph 16.1 mph N/A   Overcast
7:03 PM 46.4 °F 42.4 °F 44.6 °F 93% 29.46 in 10.0 mi NE 8.1 mph - N/A   Overcast
7:48 PM 46.4 °F 41.5 °F 44.6 °F 93% 29.43 in 10.0 mi ENE 10.4 mph 18.4 mph N/A   Overcast
8:09 PM 46.4 °F 42.4 °F 44.6 °F 93% 29.42 in 10.0 mi NE 8.1 mph - N/A   Overcast
8:51 PM 46.4 °F 41.9 °F 42.8 °F 87% 29.40 in 10.0 mi NE 9.2 mph 16.1 mph N/A   Overcast
9:12 PM 46.4 °F 42.9 °F 44.6 °F 93% 29.39 in 10.0 mi ENE 6.9 mph 16.1 mph N/A   Overcast
9:33 PM 46.4 °F 41.9 °F 44.6 °F 93% 29.39 in 7.0 mi ENE 9.2 mph 16.1 mph N/A   Overcast
9:54 PM 46.4 °F 44.3 °F 44.6 °F 93% 29.38 in 10.0 mi NE 4.6 mph 17.3 mph N/A   Overcast
10:15 PM 46.4 °F 42.9 °F 42.8 °F 87% 29.38 in 7.0 mi ENE 6.9 mph - N/A   Overcast
10:36 PM 44.6 °F 43.1 °F 42.8 °F 93% 29.40 in 3.0 mi NNW 3.5 mph - N/A   Overcast
11:00 PM 44.6 °F 41.4 °F 42.8 °F 93% 29.39 in 4.0 mi North 5.8 mph - N/A   Scattered Clouds
11:21 PM 44.6 °F 42.2 °F 42.8 °F 93% 29.39 in 5.0 mi NNE 4.6 mph - N/A   Scattered Clouds
11:42 PM 44.6 °F 42.2 °F 42.8 °F 93% 29.38 in 3.0 mi NNW 4.6 mph - N/A   Overcast